Time,TemperatureF,DewpointF,PressureIn,WindDirection,WindDirectionDegrees,WindSpeedMPH,WindSpeedGustMPH,Humidity,HourlyPrecipIn,Conditions,Clouds,dailyrainin,SoftwareType,DateUTC
2013-08-23 00:01:00,61.2,57.0,29.88,North,355,0.0,0.0,86,0.00,,,0.00,Wunderground v.1.13,2013-08-23 07:01:00,
2013-08-23 00:11:00,61.0,57.1,29.88,North,355,0.0,0.0,87,0.00,,,0.00,Wunderground v.1.13,2013-08-23 07:11:00,
2013-08-23 00:16:00,60.8,56.6,29.88,North,355,0.0,0.0,86,0.00,,,0.00,Wunderground v.1.13,2013-08-23 07:16:00,
2013-08-23 00:26:00,60.5,56.6,29.88,NNW,335,0.0,4.0,87,0.00,,,0.00,Wunderground v.1.13,2013-08-23 07:26:00,
2013-08-23 00:31:00,60.6,56.7,29.88,NNW,331,1.0,1.0,87,0.00,,,0.00,Wunderground v.1.13,2013-08-23 07:31:00,
2013-08-23 00:36:00,60.6,56.7,29.88,NNW,331,0.0,0.0,87,0.00,,,0.00,Wunderground v.1.13,2013-08-23 07:36:00,
2013-08-23 00:41:00,60.7,56.5,29.88,NW,325,0.0,0.0,86,0.00,,,0.00,Wunderground v.1.13,2013-08-23 07:41:00,
2013-08-23 00:51:00,60.8,56.3,29.88,SW,219,0.0,0.0,85,0.00,,,0.00,Wunderground v.1.13,2013-08-23 07:51:00,
2013-08-23 01:01:00,60.7,55.8,29.88,SW,218,0.0,0.0,84,0.00,,,0.00,Wunderground v.1.13,2013-08-23 08:01:00,
2013-08-23 01:06:00,60.6,56.1,29.88,SW,219,0.0,0.0,85,0.00,,,0.00,Wunderground v.1.13,2013-08-23 08:06:00,
2013-08-23 01:11:00,60.6,56.4,29.88,SW,218,0.0,0.0,86,0.00,,,0.00,Wunderground v.1.13,2013-08-23 08:11:00,
2013-08-23 01:16:00,60.7,56.5,29.88,SW,219,0.0,0.0,86,0.00,,,0.00,Wunderground v.1.13,2013-08-23 08:16:00,
2013-08-23 01:26:00,60.7,56.5,29.88,SW,218,0.0,0.0,86,0.00,,,0.00,Wunderground v.1.13,2013-08-23 08:26:00,
2013-08-23 01:31:00,60.6,55.7,29.87,SW,217,0.0,0.0,84,0.00,,,0.00,Wunderground v.1.13,2013-08-23 08:31:00,
2013-08-23 01:41:00,60.7,55.5,29.87,SSW,200,0.0,0.0,83,0.00,,,0.00,Wunderground v.1.13,2013-08-23 08:41:00,
2013-08-23 01:51:00,60.6,55.1,29.87,SSW,200,0.0,0.0,82,0.00,,,0.00,Wunderground v.1.13,2013-08-23 08:51:00,
2013-08-23 02:01:00,60.3,54.8,29.87,SSW,200,0.0,0.0,82,0.00,,,0.00,Wunderground v.1.13,2013-08-23 09:01:00,
2013-08-23 02:11:00,60.1,54.9,29.87,SSW,200,0.0,0.0,83,0.00,,,0.00,Wunderground v.1.13,2013-08-23 09:11:00,
2013-08-23 02:16:00,60.2,55.0,29.87,SSW,200,0.0,0.0,83,0.00,,,0.00,Wunderground v.1.13,2013-08-23 09:16:00,
2013-08-23 02:21:00,60.3,55.4,29.87,SSW,200,0.0,0.0,84,0.00,,,0.00,Wunderground v.1.13,2013-08-23 09:21:00,
2013-08-23 02:26:00,60.5,56.3,29.87,SSW,200,0.0,0.0,86,0.00,,,0.00,Wunderground v.1.13,2013-08-23 09:26:00,
2013-08-23 02:36:00,60.9,57.0,29.86,SSW,200,0.0,0.0,87,0.00,,,0.00,Wunderground v.1.13,2013-08-23 09:36:00,
2013-08-23 02:46:00,60.5,55.3,29.87,SSW,200,0.0,0.0,83,0.00,,,0.00,Wunderground v.1.13,2013-08-23 09:46:00,
2013-08-23 02:51:00,60.1,54.9,29.87,SSW,199,0.0,0.0,83,0.00,,,0.00,Wunderground v.1.13,2013-08-23 09:51:00,
2013-08-23 03:01:00,59.5,54.7,29.87,SSW,194,0.0,0.0,84,0.00,,,0.00,Wunderground v.1.13,2013-08-23 10:01:00,
2013-08-23 03:11:00,59.2,54.7,29.86,South,187,0.0,2.0,85,0.00,,,0.00,Wunderground v.1.13,2013-08-23 10:11:00,
2013-08-23 03:16:00,59.2,54.7,29.86,South,186,0.0,4.0,85,0.00,,,0.00,Wunderground v.1.13,2013-08-23 10:16:00,
2013-08-23 03:21:00,59.3,54.5,29.86,South,185,1.0,1.0,84,0.00,,,0.00,Wunderground v.1.13,2013-08-23 10:21:00,
2013-08-23 03:31:00,59.3,54.5,29.86,South,182,0.0,2.0,84,0.00,,,0.00,Wunderground v.1.13,2013-08-23 10:31:00,
2013-08-23 03:36:00,59.3,54.1,29.86,South,182,1.0,1.0,83,0.00,,,0.00,Wunderground v.1.13,2013-08-23 10:36:00,
2013-08-23 03:41:00,59.1,53.9,29.86,South,177,0.0,0.0,83,0.00,,,0.00,Wunderground v.1.13,2013-08-23 10:41:00,
2013-08-23 03:46:00,58.9,53.7,29.85,SSE,167,0.0,0.0,83,0.00,,,0.00,Wunderground v.1.13,2013-08-23 10:46:00,
2013-08-23 03:51:00,58.7,53.9,29.85,SSE,165,0.0,0.0,84,0.00,,,0.00,Wunderground v.1.13,2013-08-23 10:51:00,
2013-08-23 03:56:00,58.6,53.8,29.85,SSE,165,0.0,0.0,84,0.00,,,0.00,Wunderground v.1.13,2013-08-23 10:56:00,
2013-08-23 04:06:00,58.5,53.4,29.85,SSE,167,0.0,0.0,83,0.00,,,0.00,Wunderground v.1.13,2013-08-23 11:06:00,
2013-08-23 04:16:00,58.5,53.7,29.85,SSE,168,0.0,0.0,84,0.00,,,0.00,Wunderground v.1.13,2013-08-23 11:16:00,
2013-08-23 04:21:00,58.6,53.5,29.85,SSE,168,0.0,0.0,83,0.00,,,0.00,Wunderground v.1.13,2013-08-23 11:21:00,
2013-08-23 04:26:00,58.7,53.2,29.85,SSE,168,0.0,0.0,82,0.00,,,0.00,Wunderground v.1.13,2013-08-23 11:26:00,
2013-08-23 04:36:00,59.1,53.3,29.86,South,169,0.0,0.0,81,0.00,,,0.00,Wunderground v.1.13,2013-08-23 11:36:00,
2013-08-23 04:41:00,59.0,53.2,29.85,SSE,168,0.0,0.0,81,0.00,,,0.00,Wunderground v.1.13,2013-08-23 11:41:00,
2013-08-23 04:51:00,58.5,52.7,29.86,South,169,0.0,0.0,81,0.00,,,0.00,Wunderground v.1.13,2013-08-23 11:51:00,
2013-08-23 04:56:00,58.3,52.5,29.86,SSE,168,0.0,0.0,81,0.00,,,0.00,Wunderground v.1.13,2013-08-23 11:56:00,
2013-08-23 05:01:00,58.1,52.6,29.85,South,169,0.0,0.0,82,0.00,,,0.00,Wunderground v.1.13,2013-08-23 12:01:00,
2013-08-23 05:11:00,57.9,52.4,29.85,South,169,0.0,0.0,82,0.00,,,0.00,Wunderground v.1.13,2013-08-23 12:11:00,
2013-08-23 05:16:00,57.7,52.6,29.86,South,169,0.0,0.0,83,0.00,,,0.00,Wunderground v.1.13,2013-08-23 12:16:00,
2013-08-23 05:21:00,57.7,52.6,29.86,South,169,0.0,0.0,83,0.00,,,0.00,Wunderground v.1.13,2013-08-23 12:21:00,
2013-08-23 05:26:00,57.6,52.5,29.86,South,170,0.0,4.0,83,0.00,,,0.00,Wunderground v.1.13,2013-08-23 12:26:00,
2013-08-23 05:36:00,57.5,52.7,29.86,South,182,1.0,4.0,84,0.00,,,0.00,Wunderground v.1.13,2013-08-23 12:36:00,
2013-08-23 05:41:00,57.4,52.6,29.86,South,182,0.0,0.0,84,0.00,,,0.00,Wunderground v.1.13,2013-08-23 12:41:00,
2013-08-23 05:46:00,57.3,52.5,29.86,South,182,0.0,0.0,84,0.00,,,0.00,Wunderground v.1.13,2013-08-23 12:46:00,
2013-08-23 05:56:00,57.2,52.4,29.86,South,182,1.0,3.0,84,0.00,,,0.00,Wunderground v.1.13,2013-08-23 12:56:00,
2013-08-23 06:01:00,57.2,52.4,29.86,South,182,1.0,1.0,84,0.00,,,0.00,Wunderground v.1.13,2013-08-23 13:01:00,
2013-08-23 06:06:00,57.2,52.1,29.86,South,182,0.0,0.0,83,0.00,,,0.00,Wunderground v.1.13,2013-08-23 13:06:00,
2013-08-23 06:11:00,57.2,52.1,29.86,South,182,0.0,0.0,83,0.00,,,0.00,Wunderground v.1.13,2013-08-23 13:11:00,
2013-08-23 06:21:00,56.9,51.8,29.86,South,182,0.0,0.0,83,0.00,,,0.00,Wunderground v.1.13,2013-08-23 13:21:00,
2013-08-23 06:31:00,56.8,51.7,29.87,South,182,0.0,0.0,83,0.00,,,0.00,Wunderground v.1.13,2013-08-23 13:31:00,
2013-08-23 06:36:00,56.7,51.6,29.87,South,176,0.0,0.0,83,0.00,,,0.00,Wunderground v.1.13,2013-08-23 13:36:00,
2013-08-23 06:46:00,56.8,52.0,29.87,South,184,1.0,5.0,84,0.00,,,0.00,Wunderground v.1.13,2013-08-23 13:46:00,
2013-08-23 06:51:00,56.8,52.0,29.87,South,171,1.0,1.0,84,0.00,,,0.00,Wunderground v.1.13,2013-08-23 13:51:00,
2013-08-23 06:56:00,56.7,52.2,29.87,South,170,0.0,0.0,85,0.00,,,0.00,Wunderground v.1.13,2013-08-23 13:56:00,
2013-08-23 07:06:00,56.8,52.3,29.87,South,182,0.0,0.0,85,0.00,,,0.00,Wunderground v.1.13,2013-08-23 14:06:00,
2013-08-23 07:11:00,56.9,52.4,29.87,South,181,0.0,0.0,85,0.00,,,0.00,Wunderground v.1.13,2013-08-23 14:11:00,
2013-08-23 07:21:00,57.1,52.6,29.88,South,180,0.0,0.0,85,0.00,,,0.00,Wunderground v.1.13,2013-08-23 14:21:00,
2013-08-23 07:26:00,57.1,52.3,29.88,South,181,0.0,0.0,84,0.00,,,0.00,Wunderground v.1.13,2013-08-23 14:26:00,
2013-08-23 07:31:00,57.2,52.7,29.88,South,181,0.0,0.0,85,0.00,,,0.00,Wunderground v.1.13,2013-08-23 14:31:00,
2013-08-23 07:36:00,57.3,52.8,29.88,South,181,0.0,0.0,85,0.00,,,0.00,Wunderground v.1.13,2013-08-23 14:36:00,
2013-08-23 07:41:00,57.4,52.6,29.88,South,181,0.0,0.0,84,0.00,,,0.00,Wunderground v.1.13,2013-08-23 14:41:00,
2013-08-23 07:51:00,57.6,53.1,29.88,South,181,0.0,0.0,85,0.00,,,0.00,Wunderground v.1.13,2013-08-23 14:51:00,
2013-08-23 07:56:00,57.9,53.7,29.88,South,181,0.0,0.0,86,0.00,,,0.00,Wunderground v.1.13,2013-08-23 14:56:00,
2013-08-23 08:01:00,58.4,54.2,29.88,South,181,0.0,0.0,86,0.00,,,0.00,Wunderground v.1.13,2013-08-23 15:01:00,
2013-08-23 08:11:00,59.7,56.1,29.88,South,181,0.0,0.0,88,0.00,,,0.00,Wunderground v.1.13,2013-08-23 15:11:00,
2013-08-23 08:16:00,60.3,57.0,29.88,South,181,0.0,0.0,89,0.00,,,0.00,Wunderground v.1.13,2013-08-23 15:16:00,
2013-08-23 08:26:00,61.7,58.7,29.87,South,181,0.0,0.0,90,0.00,,,0.00,Wunderground v.1.13,2013-08-23 15:26:00,
2013-08-23 08:31:00,62.5,58.9,29.88,South,175,0.0,0.0,88,0.00,,,0.00,Wunderground v.1.13,2013-08-23 15:31:00,
2013-08-23 08:36:00,63.6,60.3,29.87,East,101,0.0,0.0,89,0.00,,,0.00,Wunderground v.1.13,2013-08-23 15:36:00,
2013-08-23 08:46:00,64.8,60.5,29.88,East,96,0.0,0.0,86,0.00,,,0.00,Wunderground v.1.13,2013-08-23 15:46:00,
2013-08-23 08:51:00,65.1,60.8,29.88,ENE,74,0.0,0.0,86,0.00,,,0.00,Wunderground v.1.13,2013-08-23 15:51:00,
2013-08-23 09:01:00,65.5,60.9,29.87,ENE,57,0.0,2.0,85,0.00,,,0.00,Wunderground v.1.13,2013-08-23 16:01:00,
2013-08-23 09:06:00,65.8,61.5,29.87,NE,56,0.0,0.0,86,0.00,,,0.00,Wunderground v.1.13,2013-08-23 16:06:00,
2013-08-23 09:11:00,66.2,61.6,29.87,NE,51,0.0,0.0,85,0.00,,,0.00,Wunderground v.1.13,2013-08-23 16:11:00,
2013-08-23 09:16:00,66.5,61.8,29.87,NNE,28,0.0,1.0,85,0.00,,,0.00,Wunderground v.1.13,2013-08-23 16:16:00,
2013-08-23 09:26:00,67.0,62.0,29.87,NNE,30,0.0,0.0,84,0.00,,,0.00,Wunderground v.1.13,2013-08-23 16:26:00,
2013-08-23 09:31:00,67.3,62.3,29.87,NE,43,0.0,5.0,84,0.00,,,0.00,Wunderground v.1.13,2013-08-23 16:31:00,
2013-08-23 09:36:00,67.3,62.0,29.87,ENE,57,1.0,4.0,83,0.00,,,0.00,Wunderground v.1.13,2013-08-23 16:36:00,
2013-08-23 09:41:00,67.0,61.7,29.87,NE,46,4.0,4.0,83,0.00,,,0.00,Wunderground v.1.13,2013-08-23 16:41:00,
2013-08-23 09:51:00,66.9,61.9,29.87,NE,38,4.0,4.0,84,0.00,,,0.00,Wunderground v.1.13,2013-08-23 16:51:00,
2013-08-23 09:56:00,67.0,62.0,29.87,NNE,31,5.0,5.0,84,0.00,,,0.00,Wunderground v.1.13,2013-08-23 16:56:00,
2013-08-23 10:01:00,67.2,62.5,29.87,NE,55,4.0,7.0,85,0.00,,,0.00,Wunderground v.1.13,2013-08-23 17:01:00,
2013-08-23 10:11:00,67.9,62.9,29.87,NNE,29,2.0,5.0,84,0.00,,,0.00,Wunderground v.1.13,2013-08-23 17:11:00,
2013-08-23 10:16:00,68.4,62.7,29.87,NE,40,1.0,1.0,82,0.00,,,0.00,Wunderground v.1.13,2013-08-23 17:16:00,
2013-08-23 10:21:00,68.6,62.2,29.87,NNE,31,2.0,6.0,80,0.00,,,0.00,Wunderground v.1.13,2013-08-23 17:21:00,
2013-08-23 10:26:00,68.6,61.8,29.87,NE,46,3.0,3.0,79,0.00,,,0.00,Wunderground v.1.13,2013-08-23 17:26:00,
2013-08-23 10:36:00,69.7,62.2,29.87,ENE,60,2.0,2.0,77,0.00,,,0.00,Wunderground v.1.13,2013-08-23 17:36:00,
2013-08-23 10:46:00,70.7,62.8,29.87,NNE,32,1.0,1.0,76,0.00,,,0.00,Wunderground v.1.13,2013-08-23 17:46:00,
2013-08-23 10:51:00,70.7,63.1,29.87,North,350,1.0,1.0,77,0.00,,,0.00,Wunderground v.1.13,2013-08-23 17:51:00,
2013-08-23 10:56:00,70.7,62.8,29.87,North,5,2.0,2.0,76,0.00,,,0.00,Wunderground v.1.13,2013-08-23 17:56:00,
2013-08-23 11:01:00,70.5,62.6,29.87,North,360,3.0,3.0,76,0.00,,,0.00,Wunderground v.1.13,2013-08-23 18:01:00,
2013-08-23 11:11:00,70.5,62.6,29.87,NNE,30,2.0,5.0,76,0.00,,,0.00,Wunderground v.1.13,2013-08-23 18:11:00,
2013-08-23 11:16:00,70.7,62.8,29.87,NE,49,2.0,2.0,76,0.00,,,0.00,Wunderground v.1.13,2013-08-23 18:16:00,
2013-08-23 11:21:00,70.6,62.3,29.87,NE,38,2.0,7.0,75,0.00,,,0.00,Wunderground v.1.13,2013-08-23 18:21:00,
2013-08-23 11:31:00,69.7,62.2,29.87,NE,55,5.0,5.0,77,0.00,,,0.00,Wunderground v.1.13,2013-08-23 18:31:00,
2013-08-23 11:36:00,69.8,63.0,29.86,North,350,4.0,4.0,79,0.00,,,0.00,Wunderground v.1.13,2013-08-23 18:36:00,
2013-08-23 11:41:00,70.1,62.6,29.86,NNE,22,2.0,2.0,77,0.00,,,0.00,Wunderground v.1.13,2013-08-23 18:41:00,
2013-08-23 11:51:00,70.2,63.0,29.86,NE,42,2.0,2.0,78,0.00,,,0.00,Wunderground v.1.13,2013-08-23 18:51:00,
2013-08-23 11:56:00,70.3,63.1,29.86,ENE,59,2.0,2.0,78,0.00,,,0.00,Wunderground v.1.13,2013-08-23 18:56:00,
2013-08-23 12:01:00,70.9,63.0,29.86,ENE,57,2.0,2.0,76,0.00,,,0.00,Wunderground v.1.13,2013-08-23 19:01:00,
2013-08-23 12:06:00,70.1,62.6,29.86,NNE,30,4.0,8.0,77,0.00,,,0.00,Wunderground v.1.13,2013-08-23 19:06:00,
2013-08-23 12:11:00,69.9,62.7,29.86,ENE,61,5.0,5.0,78,0.00,,,0.00,Wunderground v.1.13,2013-08-23 19:11:00,
2013-08-23 12:16:00,69.3,62.5,29.86,ENE,75,6.0,6.0,79,0.00,,,0.00,Wunderground v.1.13,2013-08-23 19:16:00,
2013-08-23 12:26:00,69.6,62.8,29.86,NNE,13,5.0,7.0,79,0.00,,,0.00,Wunderground v.1.13,2013-08-23 19:26:00,
2013-08-23 12:31:00,69.3,62.9,29.86,ENE,60,7.0,13.0,80,0.00,,,0.00,Wunderground v.1.13,2013-08-23 19:31:00,
2013-08-23 12:36:00,68.9,63.2,29.86,NE,49,8.0,8.0,82,0.00,,,0.00,Wunderground v.1.13,2013-08-23 19:36:00,
2013-08-23 12:41:00,68.3,62.9,29.86,NE,43,8.0,11.0,83,0.00,,,0.00,Wunderground v.1.13,2013-08-23 19:41:00,
2013-08-23 12:46:00,68.3,62.9,29.85,NE,34,8.0,10.0,83,0.00,,,0.00,Wunderground v.1.13,2013-08-23 19:46:00,
2013-08-23 12:56:00,68.0,63.0,29.85,ENE,57,6.0,8.0,84,0.00,,,0.00,Wunderground v.1.13,2013-08-23 19:56:00,
2013-08-23 13:06:00,67.9,62.9,29.84,ENE,57,7.0,7.0,84,0.00,,,0.00,Wunderground v.1.13,2013-08-23 20:06:00,
2013-08-23 13:11:00,68.4,63.7,29.84,East,96,5.0,5.0,85,0.00,,,0.00,Wunderground v.1.13,2013-08-23 20:11:00,
2013-08-23 13:21:00,68.7,63.0,29.84,NE,44,6.0,6.0,82,0.00,,,0.00,Wunderground v.1.13,2013-08-23 20:21:00,
2013-08-23 13:26:00,68.9,63.2,29.83,NE,53,8.0,12.0,82,0.00,,,0.00,Wunderground v.1.13,2013-08-23 20:26:00,
2013-08-23 13:31:00,69.4,63.3,29.83,East,96,7.0,7.0,81,0.00,,,0.00,Wunderground v.1.13,2013-08-23 20:31:00,
2013-08-23 13:36:00,70.2,63.7,29.83,ENE,76,6.0,6.0,80,0.00,,,0.00,Wunderground v.1.13,2013-08-23 20:36:00,
2013-08-23 13:46:00,70.4,63.6,29.83,East,80,6.0,8.0,79,0.00,,,0.00,Wunderground v.1.13,2013-08-23 20:46:00,
2013-08-23 13:51:00,69.7,63.3,29.83,ENE,65,9.0,11.0,80,0.00,,,0.00,Wunderground v.1.13,2013-08-23 20:51:00,
2013-08-23 13:56:00,69.5,63.4,29.83,East,83,9.0,9.0,81,0.00,,,0.00,Wunderground v.1.13,2013-08-23 20:56:00,
2013-08-23 14:01:00,69.9,63.8,29.83,NE,37,8.0,12.0,81,0.00,,,0.00,Wunderground v.1.13,2013-08-23 21:01:00,
2013-08-23 14:11:00,70.1,63.6,29.82,East,101,8.0,8.0,80,0.00,,,0.00,Wunderground v.1.13,2013-08-23 21:11:00,
2013-08-23 14:16:00,70.4,63.2,29.82,ENE,68,7.0,7.0,78,0.00,,,0.00,Wunderground v.1.13,2013-08-23 21:16:00,
2013-08-23 14:21:00,70.6,62.7,29.82,East,83,7.0,7.0,76,0.00,,,0.00,Wunderground v.1.13,2013-08-23 21:21:00,
2013-08-23 14:31:00,70.7,62.4,29.82,East,82,8.0,10.0,75,0.00,,,0.00,Wunderground v.1.13,2013-08-23 21:31:00,
2013-08-23 14:41:00,71.3,63.0,29.81,NE,45,7.0,17.0,75,0.00,,,0.00,Wunderground v.1.13,2013-08-23 21:41:00,
2013-08-23 14:46:00,70.7,62.8,29.81,ENE,57,9.0,9.0,76,0.00,,,0.00,Wunderground v.1.13,2013-08-23 21:46:00,
2013-08-23 14:51:00,70.4,62.5,29.81,NNE,31,9.0,17.0,76,0.00,,,0.00,Wunderground v.1.13,2013-08-23 21:51:00,
2013-08-23 14:56:00,70.1,62.2,29.81,NE,53,10.0,14.0,76,0.00,,,0.00,Wunderground v.1.13,2013-08-23 21:56:00,
2013-08-23 15:01:00,70.1,62.2,29.81,East,82,10.0,10.0,76,0.00,,,0.00,Wunderground v.1.13,2013-08-23 22:01:00,
2013-08-23 15:11:00,70.4,60.9,29.80,ENE,67,9.0,13.0,72,0.00,,,0.00,Wunderground v.1.13,2013-08-23 22:11:00,
2013-08-23 15:16:00,70.8,60.9,29.80,ENE,61,8.0,10.0,71,0.00,,,0.00,Wunderground v.1.13,2013-08-23 22:16:00,
2013-08-23 15:21:00,70.9,61.0,29.80,ENE,60,8.0,17.0,71,0.00,,,0.00,Wunderground v.1.13,2013-08-23 22:21:00,
2013-08-23 15:26:00,71.2,60.9,29.80,East,90,9.0,9.0,70,0.00,,,0.00,Wunderground v.1.13,2013-08-23 22:26:00,
2013-08-23 15:31:00,71.5,61.2,29.80,NNE,24,7.0,7.0,70,0.00,,,0.00,Wunderground v.1.13,2013-08-23 22:31:00,
2013-08-23 15:41:00,72.1,61.8,29.79,East,86,7.0,7.0,70,0.00,,,0.00,Wunderground v.1.13,2013-08-23 22:41:00,
2013-08-23 15:46:00,72.4,61.2,29.79,NE,49,8.0,12.0,68,0.00,,,0.00,Wunderground v.1.13,2013-08-23 22:46:00,
2013-08-23 15:51:00,72.9,61.3,29.79,NNE,15,7.0,7.0,67,0.00,,,0.00,Wunderground v.1.13,2013-08-23 22:51:00,
2013-08-23 15:56:00,73.1,60.6,29.79,NE,52,6.0,6.0,65,0.00,,,0.00,Wunderground v.1.13,2013-08-23 22:56:00,
2013-08-23 16:06:00,73.4,60.5,29.78,ENE,71,8.0,9.0,64,0.00,,,0.00,Wunderground v.1.13,2013-08-23 23:06:00,
2013-08-23 16:11:00,73.1,61.5,29.78,NNE,25,8.0,8.0,67,0.00,,,0.00,Wunderground v.1.13,2013-08-23 23:11:00,
2013-08-23 16:16:00,73.0,61.8,29.78,ENE,74,7.0,10.0,68,0.00,,,0.00,Wunderground v.1.13,2013-08-23 23:16:00,
2013-08-23 16:21:00,72.6,62.3,29.78,NE,49,7.0,7.0,70,0.00,,,0.00,Wunderground v.1.13,2013-08-23 23:21:00,
2013-08-23 16:26:00,72.3,62.4,29.78,NE,42,7.0,7.0,71,0.00,,,0.00,Wunderground v.1.13,2013-08-23 23:26:00,
2013-08-23 16:36:00,71.5,62.8,29.77,ENE,68,7.0,10.0,74,0.00,,,0.00,Wunderground v.1.13,2013-08-23 23:36:00,
2013-08-23 16:41:00,71.3,62.6,29.77,NNE,13,7.0,7.0,74,0.00,,,0.00,Wunderground v.1.13,2013-08-23 23:41:00,
2013-08-23 16:51:00,71.3,63.0,29.77,North,9,7.0,7.0,75,0.00,,,0.00,Wunderground v.1.13,2013-08-23 23:51:00,
2013-08-23 16:56:00,71.6,63.3,29.77,NE,49,5.0,7.0,75,0.00,,,0.00,Wunderground v.1.13,2013-08-23 23:56:00,
2013-08-23 17:01:00,71.6,62.9,29.77,NE,49,5.0,8.0,74,0.00,,,0.00,Wunderground v.1.13,2013-08-24 00:01:00,
2013-08-23 17:11:00,71.2,63.2,29.77,NE,55,6.0,6.0,76,0.00,,,0.00,Wunderground v.1.13,2013-08-24 00:11:00,
2013-08-23 17:16:00,70.4,63.2,29.77,ENE,63,8.0,8.0,78,0.00,,,0.00,Wunderground v.1.13,2013-08-24 00:16:00,
2013-08-23 17:26:00,69.8,63.3,29.77,East,83,7.0,7.0,80,0.00,,,0.00,Wunderground v.1.13,2013-08-24 00:26:00,
2013-08-23 17:36:00,69.6,62.8,29.76,NE,37,6.0,7.0,79,0.00,,,0.00,Wunderground v.1.13,2013-08-24 00:36:00,
2013-08-23 17:41:00,69.5,63.1,29.76,ENE,77,8.0,8.0,80,0.00,,,0.00,Wunderground v.1.13,2013-08-24 00:41:00,
2013-08-23 17:51:00,69.4,63.0,29.76,ESE,118,7.0,11.0,80,0.00,,,0.00,Wunderground v.1.13,2013-08-24 00:51:00,
2013-08-23 17:56:00,69.2,63.1,29.76,NE,41,7.0,10.0,81,0.00,,,0.00,Wunderground v.1.13,2013-08-24 00:56:00,
2013-08-23 18:01:00,68.9,62.8,29.76,ENE,61,8.0,14.0,81,0.00,,,0.00,Wunderground v.1.13,2013-08-24 01:01:00,
2013-08-23 18:11:00,68.4,62.7,29.75,NE,50,7.0,11.0,82,0.00,,,0.00,Wunderground v.1.13,2013-08-24 01:11:00,
2013-08-23 18:16:00,68.2,62.5,29.75,ENE,73,7.0,13.0,82,0.00,,,0.00,Wunderground v.1.13,2013-08-24 01:16:00,
2013-08-23 18:26:00,68.0,62.6,29.75,ENE,72,7.0,11.0,83,0.00,,,0.00,Wunderground v.1.13,2013-08-24 01:26:00,
2013-08-23 18:31:00,67.7,62.3,29.75,ENE,57,8.0,8.0,83,0.00,,,0.00,Wunderground v.1.13,2013-08-24 01:31:00,
2013-08-23 18:36:00,67.6,62.6,29.75,ENE,59,8.0,14.0,84,0.00,,,0.00,Wunderground v.1.13,2013-08-24 01:36:00,
2013-08-23 18:41:00,67.6,62.6,29.75,NE,55,6.0,6.0,84,0.00,,,0.00,Wunderground v.1.13,2013-08-24 01:41:00,
2013-08-23 18:51:00,67.3,62.3,29.75,NE,51,7.0,7.0,84,0.00,,,0.00,Wunderground v.1.13,2013-08-24 01:51:00,
2013-08-23 18:56:00,67.2,62.5,29.75,NE,53,6.0,6.0,85,0.00,,,0.00,Wunderground v.1.13,2013-08-24 01:56:00,
2013-08-23 19:06:00,66.7,62.4,29.75,East,90,7.0,7.0,86,0.00,,,0.00,Wunderground v.1.13,2013-08-24 02:06:00,
2013-08-23 19:11:00,66.4,62.1,29.75,East,84,7.0,7.0,86,0.00,,,0.00,Wunderground v.1.13,2013-08-24 02:11:00,
2013-08-23 19:16:00,66.2,62.2,29.75,ENE,72,6.0,6.0,87,0.00,,,0.00,Wunderground v.1.13,2013-08-24 02:16:00,
2013-08-23 19:21:00,65.9,61.9,29.76,ENE,59,5.0,5.0,87,0.00,,,0.00,Wunderground v.1.13,2013-08-24 02:21:00,
2013-08-23 19:31:00,65.3,61.7,29.76,ENE,60,5.0,10.0,88,0.00,,,0.00,Wunderground v.1.13,2013-08-24 02:31:00,
2013-08-23 19:36:00,65.1,61.5,29.76,NE,46,4.0,4.0,88,0.00,,,0.00,Wunderground v.1.13,2013-08-24 02:36:00,
2013-08-23 19:41:00,65.0,61.7,29.76,NNE,30,2.0,2.0,89,0.00,,,0.00,Wunderground v.1.13,2013-08-24 02:41:00,
2013-08-23 19:46:00,65.0,61.7,29.76,NE,36,1.0,1.0,89,0.00,,,0.00,Wunderground v.1.13,2013-08-24 02:46:00,
2013-08-23 19:56:00,64.8,61.5,29.77,ENE,61,1.0,1.0,89,0.00,,,0.00,Wunderground v.1.13,2013-08-24 02:56:00,
2013-08-23 20:01:00,64.7,61.4,29.77,NNW,328,2.0,2.0,89,0.00,,,0.00,Wunderground v.1.13,2013-08-24 03:01:00,
2013-08-23 20:11:00,64.5,61.5,29.77,NW,317,1.0,1.0,90,0.00,,,0.00,Wunderground v.1.13,2013-08-24 03:11:00,
2013-08-23 20:16:00,64.4,61.4,29.77,NNE,23,0.0,0.0,90,0.00,,,0.00,Wunderground v.1.13,2013-08-24 03:16:00,
2013-08-23 20:26:00,64.1,61.1,29.78,North,9,0.0,0.0,90,0.00,,,0.00,Wunderground v.1.13,2013-08-24 03:26:00,
2013-08-23 20:31:00,64.0,61.0,29.78,North,360,0.0,0.0,90,0.00,,,0.00,Wunderground v.1.13,2013-08-24 03:31:00,
2013-08-23 20:36:00,63.9,60.9,29.78,North,360,0.0,0.0,90,0.00,,,0.00,Wunderground v.1.13,2013-08-24 03:36:00,
2013-08-23 20:46:00,63.8,60.8,29.78,North,360,0.0,0.0,90,0.00,,,0.00,Wunderground v.1.13,2013-08-24 03:46:00,
2013-08-23 20:51:00,63.7,61.0,29.79,North,349,1.0,1.0,91,0.00,,,0.00,Wunderground v.1.13,2013-08-24 03:51:00,
2013-08-23 20:56:00,63.7,61.0,29.79,North,349,0.0,0.0,91,0.00,,,0.00,Wunderground v.1.13,2013-08-24 03:56:00,
2013-08-23 21:01:00,63.7,61.0,29.79,North,349,0.0,0.0,91,0.00,,,0.00,Wunderground v.1.13,2013-08-24 04:01:00,
2013-08-23 21:06:00,63.6,60.9,29.79,North,349,0.0,0.0,91,0.00,,,0.00,Wunderground v.1.13,2013-08-24 04:06:00,
2013-08-23 21:11:00,63.6,60.9,29.79,North,349,0.0,0.0,91,0.00,,,0.00,Wunderground v.1.13,2013-08-24 04:11:00,
2013-08-23 21:16:00,63.5,60.8,29.80,North,349,0.0,0.0,91,0.00,,,0.00,Wunderground v.1.13,2013-08-24 04:16:00,
2013-08-23 21:21:00,63.5,60.8,29.80,North,349,0.0,0.0,91,0.00,,,0.00,Wunderground v.1.13,2013-08-24 04:21:00,
2013-08-23 21:26:00,63.4,60.7,29.80,North,349,0.0,0.0,91,0.00,,,0.00,Wunderground v.1.13,2013-08-24 04:26:00,
2013-08-23 21:31:00,63.4,60.7,29.80,North,349,0.0,0.0,91,0.00,,,0.00,Wunderground v.1.13,2013-08-24 04:31:00,
2013-08-23 21:41:00,63.2,60.5,29.80,North,349,0.0,0.0,91,0.00,,,0.00,Wunderground v.1.13,2013-08-24 04:41:00,
2013-08-23 21:46:00,63.2,60.5,29.80,North,349,0.0,0.0,91,0.00,,,0.00,Wunderground v.1.13,2013-08-24 04:46:00,
2013-08-23 21:51:00,63.1,60.4,29.80,North,349,0.0,0.0,91,0.00,,,0.00,Wunderground v.1.13,2013-08-24 04:51:00,
2013-08-23 21:56:00,63.0,60.6,29.80,North,349,0.0,0.0,92,0.00,,,0.00,Wunderground v.1.13,2013-08-24 04:56:00,
2013-08-23 22:01:00,63.0,60.6,29.80,North,349,0.0,0.0,92,0.00,,,0.00,Wunderground v.1.13,2013-08-24 05:01:00,
2013-08-23 22:11:00,62.9,60.5,29.80,North,349,0.0,0.0,92,0.00,,,0.00,Wunderground v.1.13,2013-08-24 05:11:00,
2013-08-23 22:16:00,62.8,60.4,29.80,North,349,0.0,0.0,92,0.00,,,0.00,Wunderground v.1.13,2013-08-24 05:16:00,
2013-08-23 22:26:00,62.7,60.3,29.80,North,349,0.0,0.0,92,0.00,,,0.00,Wunderground v.1.13,2013-08-24 05:26:00,
2013-08-23 22:31:00,62.6,60.2,29.81,North,349,0.0,0.0,92,0.00,,,0.00,Wunderground v.1.13,2013-08-24 05:31:00,
2013-08-23 22:36:00,62.6,60.2,29.80,North,349,0.0,0.0,92,0.00,,,0.00,Wunderground v.1.13,2013-08-24 05:36:00,
2013-08-23 22:41:00,62.6,60.2,29.80,North,349,0.0,0.0,92,0.00,,,0.00,Wunderground v.1.13,2013-08-24 05:41:00,
2013-08-23 22:46:00,62.5,60.1,29.80,North,349,0.0,0.0,92,0.00,,,0.00,Wunderground v.1.13,2013-08-24 05:46:00,
2013-08-23 22:56:00,62.4,60.0,29.81,North,349,0.0,0.0,92,0.00,,,0.00,Wunderground v.1.13,2013-08-24 05:56:00,
2013-08-23 23:01:00,62.3,60.2,29.81,North,349,0.0,0.0,93,0.00,,,0.00,Wunderground v.1.13,2013-08-24 06:01:00,
2013-08-23 23:11:00,62.2,60.2,29.81,North,349,0.0,0.0,93,0.00,,,0.00,Wunderground v.1.13,2013-08-24 06:11:00,
2013-08-23 23:21:00,62.1,60.1,29.81,North,349,0.0,0.0,93,0.00,,,0.00,Wunderground v.1.13,2013-08-24 06:21:00,
2013-08-23 23:26:00,62.1,60.1,29.81,North,349,0.0,0.0,93,0.00,,,0.00,Wunderground v.1.13,2013-08-24 06:26:00,
2013-08-23 23:31:00,62.1,60.1,29.82,North,349,0.0,0.0,93,0.00,,,0.00,Wunderground v.1.13,2013-08-24 06:31:00,
2013-08-23 23:36:00,62.1,60.1,29.82,North,349,0.0,0.0,93,0.00,,,0.00,Wunderground v.1.13,2013-08-24 06:36:00,
2013-08-23 23:46:00,62.0,60.0,29.82,North,349,0.0,0.0,93,0.00,,,0.00,Wunderground v.1.13,2013-08-24 06:46:00,
2013-08-23 23:51:00,61.9,59.9,29.82,North,349,0.0,0.0,93,0.00,,,0.00,Wunderground v.1.13,2013-08-24 06:51:00,
2013-08-23 23:56:00,61.9,59.9,29.82,North,349,0.0,0.0,93,0.00,,,0.00,Wunderground v.1.13,2013-08-24 06:56:00,